Temperature
18 18 17 17 17 16 16 16 16 16 16 16 16 16 16 15 15 15 14 14 14 14 14 14 14 14 14 14 14 14 14 14 14 14 14 14 14 14 15 15 15 15 15
17 17 17 17 17 16 16 16 16 16 16 16 16 16 16 16 15 15 15 14 14 14 14 14 14 14 14 14 14 14 14 14 14 14 14 14 14 14 14 14 14 15 15
17 17 17 16 16 16 16 16 16 16 16 16 16 16 16 16 15 15 15 15 15 15 14 14 14 14 14 14 14 14 14 14 14 14 14 14 14 14 14 14 14 14 14
17 16 16 16 16 16 16 16 16 16 16 16 16 16 16 16 16 15 15 15 15 15 15 15 14 14 14 14 14 14 14 14 14 14 14 13 14 14 14 14 14 14 14
16 16 16 16 16 16 16 15 15 15 15 15 16 16 16 16 15 15 15 15 15 15 15 15 15 14 14 14 14 14 14 13 13 13 13 13 13 13 13 13 13 13 13
16 16 15 15 15 15 15 15 15 15 15 15 15 15 15 15 15 15 15 15 15 15 15 15 15 14 14 14 14 14 14 13 13 13 13 13 13 13 13 13 13 13 13
16 15 15 15 15 15 14 14 14 14 14 15 15 15 15 15 15 15 15 15 15 15 15 15 15 15 14 14 14 14 14 14 13 13 13 13 13 13 13 13 13 13 13
15 15 14 14 14 14 14 14 14 14 14 14 14 14 14 14 14 14 14 14 14 14 14 14 14 14 14 14 14 14 14 13 13 13 13 13 13 13 13 13 13 13 13
14 14 14 13 13 13 13 13 13 13 13 13 13 13 13 14 14 14 14 14 14 14 14 14 14 14 14 14 14 13 13 13 13 13 13 13 13 13 13 13 13 12 12
14 14 13 13 13 13 13 13 12 12 12 13 13 13 13 13 13 13 13 13 13 13 13 14 14 14 14 14 14 13 13 13 13 13 13 13 13 13 13 12 12 12 12
13 13 13 12 12 12 12 12 12 12 12 12 12 12 12 12 12 12 13 13 13 13 13 13 13 14 14 14 14 13 13 13 13 13 13 13 13 13 13 12 12 12 12
13 12 12 12 12 12 12 11 11 11 11 11 11 11 12 12 12 12 12 12 12 12 12 13 13 13 13 13 13 13 13 13 13 13 12 13 13 12 12 12 12 12 12
12 12 11 11 11 11 11 11 11 11 10 10 10 10 11 11 11 11 11 11 11 11 12 12 12 12 13 13 13 13 13 13 13 12 12 12 13 13 12 12 12 12 12
11 11 11 11 11 11 10 10 10 10 10 10 10 10 10 10 10 10 10 11 11 11 11 11 12 12 12 12 12 13 13 12 12 12 12 12 12 12 12 12 12 11 11
11 11 11 11 10 10 10 10 10 9 9 9 9 9 9 9 9 9 9 10 10 10 10 10 11 11 11 11 12 12 12 12 12 12 12 12 12 12 12 11 11 11 11
11 11 10 10 10 10 9 9 9 9 9 9 9 9 9 9 9 9 9 9 9 9 9 9 10 10 10 10 11 11 11 11 12 12 12 11 11 11 11 11 11 11 11
10 10 10 10 9 9 9 9 9 9 9 8 8 8 8 8 8 8 8 8 8 8 8 9 9 9 9 10 10 10 11 11 11 11 11 11 11 11 11 11 11 11 10
10 10 10 9 9 9 9 8 8 8 8 8 8 8 8 8 8 8 8 8 8 8 8 8 8 8 9 9 9 9 10 10 10 10 10 10 11 11 11 11 11 11 10
10 9 9 9 9 8 8 8 8 8 8 8 8 8 8 7 7 7 7 7 7 7 7 7 7 8 8 8 8 9 9 9 10 10 10 10 10 10 10 10 10 10 10
9 9 9 9 8 8 8 8 8 8 8 7 7 7 7 7 7 7 7 6 6 6 7 7 7 7 7 8 8 8 8 9 9 9 10 10 10 10 10 10 10 10 10
9 9 8 8 8 8 8 7 7 7 7 7 7 7 7 6 6 6 6 6 6 6 6 6 6 7 7 7 7 8 8 8 8 9 9 9 9 10 10 10 10 10 9
9 8 8 8 8 8 7 7 7 7 7 7 7 6 6 6 6 6 6 6 6 6 6 6 6 6 6 7 7 7 7 8 8 8 9 9 9 9 9 9 9 9 9
8 8 8 7 7 7 7 7 7 7 7 7 6 6 6 6 6 6 5 5 5 5 5 5 5 5 6 6 6 6 7 7 7 8 8 8 8 9 9 9 9 9 8
8 7 7 7 7 7 7 7 7 6 6 6 6 6 6 5 5 5 5 5 5 4 4 4 4 5 5 5 6 6 6 6 6 7 7 8 8 8 8 8 8 8 8
7 7 7 7 7 7 6 6 6 6 6 6 6 5 5 5 5 4 4 4 4 4 4 4 4 4 4 5 5 5 5 5 6 6 6 7 7 8 8 8 8 8 8
7 6 6 6 6 6 6 6 6 6 5 5 5 5 4 4 4 4 3 3 3 3 3 3 3 3 3 4 4 4 5 5 5 6 6 6 7 7 7 7 7 7 7
Wind_Speed
0 0 0 1 1 2 3 2 3 4 4 3 3 3 3 2 3 3 2 2 3 3 2 1 0 1 1 1 1 1 1 1 1 1 1 2 2 2 3 4 7 7 7
1 1 1 1 1 3 3 3 4 4 4 3 3 3 4 3 2 3 3 3 3 3 3 1 1 1 0 1 1 1 1 0 2 1 1 1 2 2 3 2 3 5 7
2 2 2 2 2 3 3 2 3 4 4 5 4 4 4 3 3 4 5 5 4 4 3 2 2 1 1 1 1 1 1 0 1 2 1 1 1 2 2 1 2 2 5
2 2 3 3 3 3 4 3 4 4 4 4 5 4 3 3 3 3 3 4 4 3 4 3 3 1 1 1 1 1 1 0 1 2 2 1 1 2 2 2 1 1 2
3 3 3 5 5 4 4 4 5 6 6 5 5 5 4 3 2 2 2 3 4 4 4 4 4 4 4 2 1 1 0 0 1 2 2 2 2 2 2 3 3 2 1
4 4 4 5 5 5 5 5 5 5 6 6 6 6 5 4 3 3 3 4 5 5 5 4 5 6 7 6 5 4 3 2 1 2 2 3 3 3 3 3 3 3 2
5 5 5 5 5 6 7 6 6 6 6 6 6 7 6 6 6 6 7 5 6 6 6 4 4 5 7 7 8 7 5 5 5 3 2 3 4 4 4 3 3 3 3
6 6 6 5 5 6 6 6 6 5 6 6 6 7 7 8 8 8 8 7 7 7 7 6 5 5 6 7 7 7 7 6 7 5 4 3 2 3 5 5 4 3 1
6 5 5 5 5 6 6 6 6 6 7 6 6 7 7 8 9 8 7 5 6 8 8 8 7 6 8 8 6 6 6 6 8 9 8 6 5 5 4 3 4 3 2
5 5 5 5 5 5 5 5 6 6 6 7 7 7 7 7 7 7 6 5 6 7 7 7 10 9 9 10 7 6 7 6 6 7 6 6 5 6 6 5 5 4 3
4 4 4 5 5 4 4 4 6 6 6 7 8 7 7 7 8 6 6 4 5 6 6 6 6 9 10 11 10 7 8 7 6 7 7 6 5 5 5 4 4 4 4
1 2 4 4 5 5 4 5 6 6 6 6 7 7 6 7 7 6 8 7 7 6 7 6 6 8 10 11 10 10 11 8 5 5 5 6 7 7 6 7 5 5 4
2 3 4 5 3 3 4 5 5 5 5 5 6 6 7 6 7 9 9 10 11 8 8 10 10 10 9 9 12 13 10 6 6 6 7 7 7 7 7 6 6 5 4
3 4 4 4 4 4 4 4 4 4 4 5 5 6 7 7 6 6 7 8 9 8 8 10 11 12 10 9 9 9 8 7 8 8 7 6 6 6 6 6 5 5 4
4 4 4 3 3 4 4 4 5 4 4 5 5 6 6 7 9 11 9 8 8 8 9 7 7 6 6 6 6 7 7 8 9 8 8 7 7 7 6 5 5 5 5
3 3 3 3 3 3 5 6 7 8 11 12 12 11 9 11 14 15 16 15 15 14 9 7 8 8 8 8 8 8 8 9 9 9 8 8 8 8 7 6 6 6 6
4 4 3 3 4 4 5 5 6 7 10 12 14 14 14 15 16 16 16 16 15 12 8 8 8 8 8 8 8 8 9 9 9 9 9 9 8 8 8 8 8 7 7
5 4 4 4 4 4 5 6 6 7 7 6 8 13 14 14 14 15 15 12 9 7 7 8 9 8 8 8 7 7 8 8 8 8 8 8 9 9 9 9 9 9 8
4 4 3 3 4 5 6 7 7 8 7 7 6 7 10 11 11 13 11 7 7 8 8 8 8 8 7 7 7 7 7 8 8 8 8 9 9 8 9 10 10 12 9
4 7 6 5 5 6 6 6 7 7 7 7 7 7 6 6 6 7 6 6 7 8 8 8 8 8 7 7 7 7 7 8 8 8 8 8 9 8 9 10 10 10 9
4 5 7 6 6 6 6 6 7 7 7 7 7 8 10 8 8 8 8 7 7 8 8 8 8 8 7 7 7 8 9 8 8 8 8 8 9 8 8 8 9 10 8
4 5 5 6 6 6 7 7 7 8 8 9 8 9 13 9 8 8 7 7 7 7 7 7 8 7 7 7 7 8 8 9 8 8 7 7 8 9 9 9 8 8 9
5 6 6 6 7 8 8 8 8 8 8 8 8 8 7 7 7 8 8 7 7 7 7 7 8 8 7 7 7 8 9 9 9 8 7 7 8 9 9 9 10 10 10
5 6 7 7 7 7 7 8 8 8 8 8 8 8 8 8 8 9 8 8 8 8 8 8 8 11 12 10 8 7 8 8 8 8 9 8 8 8 9 9 10 11 11
6 7 7 7 7 7 8 8 8 8 8 8 8 8 8 8 8 9 8 8 9 9 11 10 9 10 12 13 11 9 10 12 11 8 7 7 8 9 10 11 10 11 10
6 7 7 7 7 7 8 8 8 8 8 8 8 8 8 8 9 9 9 9 9 9 11 10 11 13 14 12 12 12 12 12 11 11 8 6 7 8 10 9 12 11 12
Wind_Direction
358 275 252 215 244 239 246 254 267 278 265 226 217 244 247 223 195 182 231 256 290 298 286 252 214 22 353 359 9 6 358 88 146 178 141 147 135 128 142 152 157 159 168
3 342 297 238 232 259 245 235 253 272 286 275 224 232 249 235 213 195 222 239 251 271 288 304 272 156 69 7 13 343 340 104 134 168 171 153 158 148 144 153 155 156 157
43 352 334 328 302 294 295 267 269 275 277 287 269 239 243 234 221 217 215 226 234 231 234 248 257 206 190 189 194 305 310 59 130 155 174 158 151 138 124 124 112 120 149
72 14 341 335 337 326 321 326 309 301 283 276 288 284 270 250 243 245 240 238 242 238 224 218 212 203 188 199 193 243 274 126 165 158 163 175 161 155 140 157 144 147 154
52 38 3 349 355 347 340 334 325 316 312 300 292 289 288 275 275 297 297 280 262 253 244 217 189 169 152 149 138 117 51 136 184 174 185 189 191 167 181 182 167 168 172
60 44 26 2 355 349 336 330 320 309 309 313 307 300 292 287 268 255 266 294 293 279 265 235 200 185 184 181 175 174 163 172 209 207 197 198 203 186 178 176 165 159 193
57 42 28 11 359 350 343 337 326 321 314 303 298 298 292 276 257 246 242 254 270 277 277 265 247 212 190 189 197 202 206 212 207 205 217 222 201 188 174 176 175 172 187
52 34 19 9 358 348 341 333 325 316 308 298 289 286 285 280 261 246 243 244 255 262 267 260 246 231 211 198 193 195 205 212 215 210 214 239 224 182 170 176 177 158 141
46 27 16 6 354 345 339 333 328 323 313 307 302 289 282 282 269 257 241 250 251 252 254 254 242 230 220 209 203 205 205 213 208 193 186 181 169 160 154 141 151 148 181
39 17 3 351 341 338 336 331 324 318 314 314 309 304 297 294 292 272 246 256 261 260 255 254 245 234 223 210 206 213 217 215 196 188 189 189 188 185 183 179 174 175 186
35 2 345 336 325 326 335 326 318 319 321 319 315 313 312 310 311 299 268 261 273 274 268 261 250 237 228 217 212 216 220 213 203 193 192 195 196 195 195 197 193 188 193
354 317 314 312 317 336 336 324 323 325 322 323 322 322 322 326 329 328 317 287 291 291 283 278 273 258 240 228 222 225 223 216 210 202 199 200 200 200 196 195 195 193 184
299 297 292 295 300 316 322 321 322 327 330 327 328 326 323 327 329 331 327 318 303 295 290 288 289 284 264 243 231 226 221 215 209 212 212 211 205 196 188 187 189 179 164
298 300 298 307 321 323 315 310 316 320 320 318 319 317 317 318 325 339 336 326 315 304 298 298 291 273 255 244 238 228 221 214 210 215 213 209 197 191 187 180 179 173 167
281 289 301 307 306 305 308 304 303 285 276 280 284 289 298 301 301 307 308 306 306 298 302 293 284 273 251 246 239 224 215 214 219 216 212 208 201 195 193 182 174 173 178
276 286 287 293 300 301 298 299 289 280 281 275 267 267 274 275 284 295 298 296 294 292 296 283 272 262 255 244 240 233 223 219 219 218 214 208 203 198 192 184 179 182 188
265 271 276 284 287 286 287 290 295 292 279 276 275 273 267 271 279 288 291 293 292 290 283 274 270 264 259 253 246 240 234 225 217 220 219 212 203 196 190 189 189 188 192
257 261 263 262 268 280 286 284 282 285 289 284 276 274 274 273 276 282 287 296 292 277 266 268 270 267 266 262 255 251 245 233 223 220 220 215 207 199 193 192 194 193 192
256 253 253 261 268 272 273 275 276 278 280 284 287 287 284 286 281 279 284 278 279 279 275 272 268 267 267 266 263 256 253 248 232 221 221 218 210 204 200 196 194 194 191
246 251 252 251 256 262 265 271 277 280 284 285 284 285 290 295 292 288 281 274 275 280 281 278 275 272 269 267 263 261 257 256 244 229 221 220 212 204 200 197 194 191 195
245 254 260 261 258 262 269 273 276 279 280 280 278 280 287 287 282 279 275 272 272 275 280 283 278 274 269 264 261 258 257 256 249 236 224 218 211 205 199 195 196 190 184
249 256 258 261 264 265 268 271 274 275 275 279 278 278 281 275 273 274 275 276 273 271 273 280 283 275 270 267 260 258 257 256 251 238 228 223 213 202 193 190 188 186 181
245 258 263 266 267 271 273 270 269 270 272 275 277 278 279 275 274 274 274 277 280 280 280 280 281 281 273 269 264 257 257 253 249 243 231 225 215 204 192 189 186 182 183
252 260 265 268 268 267 269 271 272 274 276 278 280 280 280 280 280 280 280 280 280 280 280 279 278 280 279 277 268 260 257 253 248 243 236 229 217 206 196 188 186 183 179
259 264 265 267 268 268 270 272 274 275 276 278 281 282 282 282 283 284 282 279 279 280 281 280 279 280 279 276 271 265 264 261 257 243 236 234 217 202 193 185 183 176 170
268 269 269 268 267 266 268 271 274 278 279 281 283 284 283 283 284 286 285 281 280 280 281 280 276 276 279 275 267 263 262 260 258 246 233 231 214 201 190 185 177 175 170
Height
1520 1520 1520 1520 1520 1519 1519 1519 1519 1518 1518 1517 1517 1516 1516 1515 1514 1513 1513 1512 1511 1511 1511 1510 1509 1509 1508 1508 1508 1508 1508 1508 1508 1509 1510 1510 1511 1512 1513 1514 1515 1517 1518
1519 1519 1519 1519 1518 1518 1518 1518 1517 1517 1517 1516 1516 1515 1515 1514 1514 1513 1512 1512 1511 1511 1510 1510 1509 1509 1508 1507 1507 1507 1507 1507 1508 1508 1508 1509 1510 1511 1512 1513 1514 1515 1516
1518 1518 1518 1518 1517 1517 1517 1517 1516 1516 1515 1515 1515 1514 1513 1513 1512 1512 1511 1511 1510 1510 1509 1509 1508 1508 1507 1507 1506 1506 1506 1506 1506 1506 1507 1508 1509 1510 1510 1511 1512 1513 1514
1518 1517 1517 1517 1517 1516 1516 1515 1514 1514 1514 1513 1513 1512 1512 1511 1511 1510 1510 1509 1509 1509 1508 1508 1507 1507 1506 1506 1505 1505 1504 1504 1505 1505 1505 1506 1507 1508 1509 1510 1511 1512 1513
1517 1517 1516 1516 1515 1515 1514 1513 1512 1512 1511 1511 1510 1510 1509 1509 1508 1508 1507 1507 1507 1506 1506 1506 1505 1505 1504 1504 1504 1503 1503 1503 1503 1503 1504 1505 1505 1506 1507 1508 1509 1510 1511
1517 1516 1515 1514 1514 1513 1512 1511 1510 1509 1508 1508 1507 1507 1506 1506 1505 1505 1504 1504 1504 1503 1503 1503 1502 1502 1502 1502 1502 1501 1501 1501 1501 1501 1502 1502 1503 1504 1505 1506 1507 1508 1509
1516 1515 1514 1513 1512 1511 1510 1509 1508 1507 1506 1505 1504 1503 1502 1502 1502 1501 1500 1500 1500 1499 1499 1500 1499 1499 1499 1498 1498 1498 1498 1498 1499 1499 1499 1500 1500 1501 1502 1503 1504 1505 1506
1515 1514 1513 1512 1510 1509 1508 1506 1505 1504 1502 1501 1500 1499 1498 1498 1497 1497 1496 1495 1495 1495 1495 1495 1495 1495 1495 1495 1495 1495 1495 1495 1496 1496 1497 1497 1498 1498 1499 1500 1501 1503 1504
1513 1512 1511 1510 1508 1507 1505 1504 1502 1501 1499 1498 1497 1496 1495 1494 1493 1492 1491 1490 1490 1489 1490 1490 1491 1491 1491 1491 1491 1491 1491 1491 1492 1493 1493 1494 1495 1496 1497 1498 1498 1499 1501
1512 1511 1510 1508 1507 1505 1503 1502 1500 1498 1496 1495 1494 1493 1491 1490 1489 1488 1487 1486 1484 1484 1484 1485 1486 1486 1486 1486 1486 1486 1487 1487 1488 1489 1489 1490 1491 1492 1493 1494 1495 1496 1497
1510 1509 1508 1506 1505 1503 1501 1499 1497 1495 1494 1492 1490 1489 1488 1487 1485 1484 1482 1481 1480 1479 1479 1479 1479 1480 1480 1480 1481 1481 1481 1483 1483 1484 1485 1485 1486 1487 1488 1490 1491 1492 1493
1507 1506 1505 1504 1503 1501 1499 1497 1495 1493 1491 1489 1487 1485 1484 1483 1481 1479 1477 1476 1475 1474 1473 1473 1473 1474 1474 1474 1474 1475 1476 1477 1478 1478 1479 1480 1481 1482 1483 1485 1486 1488 1489
1505 1504 1503 1502 1500 1498 1497 1494 1492 1490 1488 1486 1484 1482 1480 1478 1476 1475 1473 1471 1469 1468 1467 1466 1466 1466 1466 1466 1467 1468 1469 1470 1471 1471 1472 1473 1475 1477 1478 1480 1481 1483 1484
1502 1501 1500 1499 1497 1495 1494 1492 1490 1488 1486 1483 1481 1478 1476 1474 1472 1470 1468 1465 1463 1461 1460 1459 1458 1458 1458 1458 1459 1460 1461 1462 1463 1464 1465 1467 1469 1471 1472 1474 1476 1477 1479
1498 1498 1497 1495 1494 1492 1490 1489 1487 1485 1483 1480 1478 1475 1472 1469 1468 1466 1464 1460 1458 1456 1453 1451 1450 1450 1449 1450 1451 1451 1452 1454 1455 1456 1458 1460 1462 1464 1466 1468 1469 1471 1473
1494 1493 1492 1491 1490 1488 1486 1484 1482 1481 1479 1476 1474 1472 1469 1466 1463 1461 1458 1455 1453 1450 1448 1445 1444 1443 1442 1442 1443 1443 1444 1445 1446 1448 1450 1452 1454 1456 1458 1460 1462 1464 1466
1490 1489 1488 1487 1485 1483 1481 1479 1477 1475 1473 1471 1469 1467 1464 1461 1459 1456 1452 1449 1446 1444 1441 1439 1437 1437 1436 1435 1435 1436 1436 1437 1438 1439 1441 1443 1445 1448 1450 1452 1454 1457 1459
1485 1484 1483 1482 1480 1479 1477 1474 1472 1469 1467 1465 1463 1461 1459 1456 1453 1450 1447 1443 1439 1438 1436 1433 1431 1430 1429 1429 1428 1428 1428 1429 1430 1431 1432 1434 1437 1439 1442 1444 1446 1449 1452
1479 1478 1477 1476 1475 1473 1471 1469 1467 1465 1462 1459 1457 1455 1453 1450 1447 1444 1441 1438 1435 1432 1430 1428 1426 1424 1423 1422 1421 1420 1420 1420 1421 1422 1424 1425 1428 1431 1433 1435 1438 1441 1444
1473 1472 1471 1470 1469 1467 1466 1464 1462 1459 1456 1454 1451 1449 1446 1443 1440 1437 1435 1433 1430 1427 1424 1422 1420 1418 1416 1415 1413 1412 1411 1411 1412 1414 1414 1416 1418 1422 1424 1427 1430 1433 1436
1467 1466 1466 1464 1463 1461 1460 1458 1456 1453 1450 1447 1445 1443 1440 1437 1434 1431 1428 1426 1423 1420 1417 1415 1413 1411 1409 1407 1406 1404 1403 1403 1403 1404 1406 1407 1410 1412 1415 1419 1422 1425 1429
1461 1460 1459 1458 1457 1455 1453 1451 1449 1447 1444 1441 1438 1435 1433 1430 1427 1424 1421 1419 1416 1414 1411 1408 1405 1403 1402 1400 1398 1397 1395 1394 1394 1395 1397 1398 1401 1403 1407 1410 1414 1417 1421
1455 1454 1453 1451 1450 1448 1446 1444 1442 1439 1437 1434 1431 1428 1425 1423 1419 1417 1414 1411 1408 1405 1403 1400 1397 1395 1393 1392 1390 1389 1387 1386 1386 1387 1388 1389 1392 1394 1398 1401 1405 1409 1413
1448 1447 1446 1444 1443 1441 1439 1437 1434 1432 1429 1427 1424 1421 1418 1415 1412 1408 1405 1403 1399 1396 1394 1391 1389 1386 1384 1383 1382 1380 1379 1379 1379 1379 1380 1381 1383 1386 1389 1393 1397 1401 1405
1441 1440 1438 1437 1435 1433 1431 1429 1426 1424 1421 1419 1416 1412 1409 1406 1403 1400 1397 1394 1391 1387 1384 1382 1379 1377 1375 1374 1373 1371 1371 1370 1370 1371 1372 1373 1375 1378 1381 1385 1389 1394 1398
1433 1432 1431 1429 1427 1425 1423 1421 1418 1416 1413 1410 1407 1404 1400 1397 1394 1390 1387 1384 1381 1377 1374 1371 1369 1367 1365 1364 1363 1362 1362 1362 1362 1363 1364 1365 1367 1370 1373 1377 1382 1387 1391